Weather History for Chicago Lansing, IL

Change the Weather History Date:

Thursday, June 27, 2013

  Actual Average (KMDW) Record (KMDW)
Temperature  
Mean Temperature 76 °F 75 °F  
Max Temperature 90 °F 83 °F 102 °F (1933)
Min Temperature 63 °F 66 °F 50 °F (1981)
Degree Days  
Heating Degree Days 0 0  
Month to date heating degree days 29  
Since 1 June heating degree days 29  
Since 1 July heating degree days 5988  
Cooling Degree Days 12 10  
Month to date cooling degree days 176  
Year to date cooling degree days 250  
Since 1 June cooling degree days 176  
Growing Degree Days 26 (Base 50)    
Moisture  
Dew Point 65 °F    
Average Humidity 72    
Maximum Humidity 96    
Minimum Humidity 39    
Precipitation  
Precipitation 0.05 in 0.12 in 2.88 in (1983)
Month to date precipitation 3.72  
Year to date precipitation 18.21  
Sea Level Pressure  
Sea Level Pressure 29.76 in    
Wind  
Wind Speed 4 mph (WNW)    
Max Wind Speed 20 mph    
Max Gust Speed 29 mph    
Visibility 8 miles    
Events Rain , Thunderstorm    
T = Trace of Precipitation, MM = Missing Value Source: NWS Daily Summary

Daily Weather History Graph

Daily Weather History Graph

Search for Another Location

Airport:

Trip Planner

Search our weather history database for the weather conditions in past years. The results will help you decide how hot, cold, wet, or windy it might be!

Date:

Astronomy

Jun. 27, 2013 Rise Set
Actual Time 5:18 AM CDT 8:28 PM CDT
Civil Twilight 4:44 AM CDT 9:02 PM CDT
Nautical Twilight 4:00 AM CDT 9:45 PM CDT
Astronomical Twilight 3:08 AM CDT 10:37 PM CDT
Moon 11:20 PM CDT (6/27) 10:22 AM CDT (6/27)
Length of Visible Light 16h 18m
Length of Day
15h 10m
Waning Gibbous, 76% of the Moon is Illuminated
Jun 27
Waning Gibbous
Jun 29
Last Quarter
Jul 8
New
Jul 15
First Quarter
Jul 22
Full

Hourly Weather History & Observations

Time (CDT) Temp. Heat Index Dew Point Humidity Pressure Visibility Wind Dir Wind Speed Gust Speed Precip Events Conditions
12:15 AM 70.3 °F - 65.8 °F 86% 29.80 in 10.0 mi NW 3.5 mph - N/A   Overcast
12:35 AM 70.0 °F - 65.5 °F 86% 29.78 in 10.0 mi Calm Calm - N/A   Mostly Cloudy
1:15 AM 68.5 °F - 65.1 °F 89% 29.76 in 7.0 mi NNE 3.5 mph - N/A   Clear
1:35 AM 68.0 °F - 64.9 °F 90% 29.76 in 7.0 mi NNE 3.5 mph - N/A   Clear
1:55 AM 68.0 °F - 64.9 °F 90% 29.76 in 7.0 mi Calm Calm - N/A   Clear
2:15 AM 67.1 °F - 64.6 °F 92% 29.76 in 5.0 mi West 4.6 mph - N/A   Clear
2:35 AM 66.6 °F - 64.6 °F 93% 29.75 in 3.0 mi NW 3.5 mph - N/A   Clear
2:55 AM 66.6 °F - 64.4 °F 93% 29.76 in 4.0 mi Calm Calm - N/A   Clear
3:15 AM 66.6 °F - 64.2 °F 92% 29.76 in 3.0 mi NW 3.5 mph - N/A   Clear
3:35 AM 66.4 °F - 64.2 °F 93% 29.77 in 2.5 mi Calm Calm - N/A   Clear
3:55 AM 66.4 °F - 64.4 °F 93% 29.77 in 2.5 mi Calm Calm - N/A   Clear
4:15 AM 66.2 °F - 64.0 °F 93% 29.77 in 2.5 mi Calm Calm - N/A   Clear
4:35 AM 65.3 °F - 63.7 °F 94% 29.76 in 1.8 mi Calm Calm - N/A   Mist
4:55 AM 64.6 °F - 63.1 °F 95% 29.77 in 1.5 mi Calm Calm - N/A   Mist
5:15 AM 65.3 °F - 63.9 °F 95% 29.78 in 2.0 mi Calm Calm - N/A   Clear
5:35 AM 64.4 °F - 62.8 °F 94% 29.79 in 1.5 mi Calm Calm - N/A   Mist
5:55 AM 63.7 °F - 62.4 °F 96% 29.80 in 1.2 mi Calm Calm - N/A   Mist
6:15 AM 65.7 °F - 64.4 °F 96% 29.80 in 1.5 mi Calm Calm - N/A   Mist
6:35 AM 67.6 °F - 65.3 °F 92% 29.81 in 2.0 mi Calm Calm - N/A   Clear
6:55 AM 68.9 °F - 65.7 °F 89% 29.80 in 2.5 mi Calm Calm - N/A   Clear
7:15 AM 70.5 °F - 65.8 °F 85% 29.79 in 4.0 mi Calm Calm - N/A   Haze
7:35 AM 71.6 °F - 65.8 °F 82% 29.79 in 5.0 mi WNW 3.5 mph - N/A   Haze
7:55 AM 73.6 °F - 66.9 °F 80% 29.80 in 7.0 mi West 6.9 mph - N/A   Clear
8:15 AM 74.3 °F - 66.7 °F 77% 29.80 in 5.0 mi WNW 5.8 mph - N/A   Haze
8:35 AM 75.4 °F - 66.7 °F 74% 29.79 in 10.0 mi WNW 5.8 mph - N/A   Clear
8:55 AM 76.3 °F - 66.6 °F 72% 29.79 in 10.0 mi NW 4.6 mph - N/A   Clear
9:15 AM 77.2 °F - 66.6 °F 70% 29.79 in 10.0 mi Calm Calm - N/A   Clear
9:35 AM 79.0 °F - 67.3 °F 67% 29.79 in 10.0 mi Calm Calm - N/A   Clear
9:55 AM 80.6 °F 83.1 °F 67.5 °F 64% 29.79 in 10.0 mi WNW 6.9 mph - N/A   Clear
10:15 AM 81.3 °F 84.1 °F 68.0 °F 64% 29.79 in 10.0 mi NW 8.1 mph - N/A   Scattered Clouds
10:35 AM 82.0 °F 85.1 °F 68.2 °F 63% 29.79 in 10.0 mi WNW 6.9 mph - N/A   Scattered Clouds
10:55 AM 82.4 °F 85.8 °F 68.9 °F 64% 29.79 in 10.0 mi West 10.4 mph - N/A   Mostly Cloudy
11:15 AM 83.5 °F 87.2 °F 69.1 °F 62% 29.78 in 10.0 mi West 8.1 mph - N/A   Mostly Cloudy
11:35 AM 83.8 °F 87.3 °F 68.7 °F 60% 29.79 in 10.0 mi West 8.1 mph - N/A   Mostly Cloudy
11:55 AM 85.8 °F 89.7 °F 68.9 °F 57% 29.78 in 10.0 mi WNW 6.9 mph - N/A   Scattered Clouds
12:15 PM 86.2 °F 89.7 °F 68.5 °F 55% 29.78 in 10.0 mi WNW 5.8 mph - N/A   Scattered Clouds
12:35 PM 86.9 °F 90.6 °F 68.2 °F 54% 29.78 in 10.0 mi NW 8.1 mph - N/A   Scattered Clouds
12:55 PM 87.4 °F 90.1 °F 66.7 °F 50% 29.77 in 10.0 mi West 9.2 mph - N/A   Scattered Clouds
1:15 PM 88.2 °F 90.6 °F 66.4 °F 48% 29.77 in 10.0 mi WNW 9.2 mph - N/A   Clear
1:35 PM 89.1 °F 91.3 °F 65.8 °F 46% 29.77 in 10.0 mi WNW 12.7 mph 17.3 mph N/A   Scattered Clouds
1:55 PM 88.9 °F 91.0 °F 65.5 °F 46% 29.77 in 10.0 mi WNW 9.2 mph 18.4 mph N/A   Scattered Clouds
2:15 PM 90.3 °F 93.0 °F 66.2 °F 45% 29.78 in 10.0 mi WNW 12.7 mph 21.9 mph N/A   Scattered Clouds
2:35 PM 90.1 °F 90.9 °F 62.8 °F 40% 29.77 in 10.0 mi WNW 12.7 mph 21.9 mph N/A   Scattered Clouds
2:55 PM 89.4 °F 90.5 °F 63.3 °F 42% 29.77 in 10.0 mi WNW 11.5 mph 23.0 mph N/A   Scattered Clouds
3:15 PM 90.0 °F 90.6 °F 62.8 °F 40% 29.76 in 10.0 mi West 15.0 mph 21.9 mph N/A   Clear
3:35 PM 89.2 °F 90.2 °F 63.1 °F 42% 29.75 in 10.0 mi WNW 10.4 mph - N/A   Scattered Clouds
3:55 PM 88.9 °F 89.1 °F 61.7 °F 40% 29.74 in 10.0 mi West 13.8 mph 21.9 mph N/A   Mostly Cloudy
4:15 PM 89.1 °F 90.3 °F 63.7 °F 43% 29.74 in 10.0 mi West 10.4 mph 18.4 mph N/A   Scattered Clouds
4:35 PM 88.5 °F 89.2 °F 63.0 °F 42% 29.73 in 10.0 mi West 11.5 mph 17.3 mph N/A   Mostly Cloudy
4:55 PM 90.0 °F 90.3 °F 61.7 °F 39% 29.71 in 10.0 mi West 18.4 mph 25.3 mph N/A   Mostly Cloudy
5:15 PM 87.8 °F 88.5 °F 62.6 °F 43% 29.70 in 10.0 mi West 17.3 mph 23.0 mph N/A   Scattered Clouds
5:35 PM 86.4 °F 87.0 °F 62.6 °F 45% 29.71 in 10.0 mi West 16.1 mph 26.5 mph N/A   Scattered Clouds
5:55 PM 86.4 °F 87.0 °F 62.6 °F 45% 29.70 in 10.0 mi West 15.0 mph 21.9 mph N/A   Scattered Clouds
6:15 PM 87.6 °F 88.8 °F 63.9 °F 45% 29.70 in 10.0 mi WNW 13.8 mph 21.9 mph N/A   Scattered Clouds
6:35 PM 87.4 °F 88.2 °F 62.8 °F 44% 29.69 in 10.0 mi West 19.6 mph 28.8 mph N/A Thunderstorm Thunderstorm
6:55 PM 71.1 °F - 65.8 °F 84% 29.73 in 10.0 mi NNE 5.8 mph 18.4 mph 0.05 in Rain , Thunderstorm Light Thunderstorms and Rain
7:15 PM 73.6 °F - 67.1 °F 80% 29.71 in 10.0 mi Calm Calm - N/A   Scattered Clouds
7:35 PM 75.2 °F - 67.6 °F 77% 29.71 in 10.0 mi WSW 3.5 mph - N/A   Clear
7:55 PM 75.2 °F - 66.7 °F 75% 29.71 in 10.0 mi WSW 3.5 mph - N/A   Scattered Clouds
8:15 PM 74.1 °F - 65.5 °F 74% 29.71 in 10.0 mi West 4.6 mph - N/A   Scattered Clouds
8:35 PM 73.4 °F - 65.1 °F 75% 29.71 in 10.0 mi Calm Calm - N/A   Clear
8:55 PM 72.1 °F - 65.1 °F 78% 29.71 in 10.0 mi NNE 5.8 mph - N/A   Clear
9:15 PM 71.1 °F - 66.4 °F 85% 29.71 in 10.0 mi Calm Calm - N/A   Clear
9:35 PM 70.2 °F - 66.0 °F 87% 29.71 in 10.0 mi Calm Calm - N/A   Clear
9:55 PM 69.8 °F - 67.1 °F 91% 29.71 in 10.0 mi Calm Calm - N/A   Clear
10:15 PM 70.7 °F - 67.3 °F 89% 29.71 in 10.0 mi Calm Calm - N/A   Clear
10:35 PM 70.2 °F - 66.9 °F 89% 29.71 in 10.0 mi Calm Calm - N/A   Clear
10:55 PM 68.7 °F - 66.4 °F 92% 29.71 in 10.0 mi West 3.5 mph - N/A   Scattered Clouds
11:15 PM 70.5 °F - 64.9 °F 82% 29.71 in 10.0 mi WNW 4.6 mph - N/A   Scattered Clouds
11:35 PM 71.1 °F - 64.0 °F 78% 29.71 in 10.0 mi Calm Calm - N/A   Mostly Cloudy
11:55 PM 68.9 °F - 64.9 °F 87% 29.71 in 10.0 mi ENE 3.5 mph - N/A   Scattered Clouds